| time (UTC) | temp F | wind direction | speed knots | gust knots | rain 1hr in | rain 24hr in | rain mn in | humidity % | barometer mb |
| 20260906114600 | 76 | 316 | 0.0 | 2.6 | 0.00 | 0.00 | 0.00 | 92 | 1014.4 |
| 20260906114059 | 76 | 313 | 0.9 | 2.6 | 0.00 | 0.00 | 0.00 | 92 | 1014.4 |
| 20260906113559 | 76 | 0 | 0.9 | 2.6 | 0.00 | 0.00 | 0.00 | 92 | 1014.3 |
| 20260906113104 | 76 | 335 | 0.0 | 3.5 | 0.00 | 0.00 | 0.00 | 93 | 1014.1 |
| 20260906112558 | 76 | 0 | 0.9 | 3.5 | 0.00 | 0.00 | 0.00 | 93 | 1014.1 |
| 20260906112058 | 76 | 304 | 0.0 | 3.5 | 0.00 | 0.00 | 0.00 | 93 | 1014.1 |
| 20260906111618 | 76 | 302 | 0.0 | 3.5 | 0.00 | 0.00 | 0.00 | 93 | 1014.1 |
| 20260906111058 | 76 | 319 | 0.9 | 3.5 | 0.00 | 0.00 | 0.00 | 93 | 1014.0 |
| 20260906110559 | 76 | 350 | 0.9 | 3.5 | 0.00 | 0.00 | 0.00 | 93 | 1013.8 |
| 20260906105559 | 76 | 0 | 0.9 | 2.6 | 0.00 | 0.00 | 0.00 | 93 | 1013.7 |
| 20260906105058 | 76 | 121 | 0.0 | 1.7 | 0.00 | 0.00 | 0.00 | 93 | 1013.6 |
| 20260906104605 | 76 | 0 | 0.0 | 1.7 | 0.00 | 0.00 | 0.00 | 93 | 1013.5 |
| 20260906104058 | 76 | 0 | 0.0 | 1.7 | 0.00 | 0.00 | 0.00 | 93 | 1013.3 |
| 20260906103559 | 76 | 0 | 0.0 | 1.7 | 0.00 | 0.00 | 0.00 | 92 | 1013.2 |
| 20260906103111 | 76 | 283 | 0.0 | 1.7 | 0.00 | 0.00 | 0.00 | 92 | 1013.4 |
| 20260906102602 | 76 | 0 | 0.0 | 1.7 | 0.00 | 0.00 | 0.00 | 92 | 1013.3 |
| 20260906102059 | 76 | 0 | 0.0 | 1.7 | 0.00 | 0.00 | 0.00 | 91 | 1013.2 |
| 20260906101604 | 76 | 0 | 0.0 | 1.7 | 0.00 | 0.00 | 0.00 | 91 | 1013.1 |
| 20260906101058 | 76 | 0 | 0.0 | 1.7 | 0.00 | 0.00 | 0.00 | 91 | 1013.0 |
| 20260906100559 | 76 | 327 | 0.0 | 2.6 | 0.00 | 0.00 | 0.00 | 91 | 1013.0 |
| 20260906095559 | 76 | 336 | 0.9 | 3.5 | 0.00 | 0.00 | 0.00 | 90 | 1013.1 |
| 20260906095059 | 76 | 288 | 0.9 | 3.5 | 0.00 | 0.00 | 0.00 | 89 | 1012.7 |
| 20260906094605 | 77 | 355 | 0.9 | 3.5 | 0.00 | 0.00 | 0.00 | 88 | 1012.9 |
| 20260906094058 | 77 | 335 | 1.7 | 3.5 | 0.00 | 0.00 | 0.00 | 88 | 1012.8 |
| 20260906093559 | 77 | 312 | 0.0 | 1.7 | 0.00 | 0.00 | 0.00 | 88 | 1012.4 |
| 20260906093105 | 77 | 0 | 0.0 | 1.7 | 0.00 | 0.00 | 0.00 | 88 | 1012.3 |
| 20260906092556 | 77 | 0 | 0.0 | 1.7 | 0.00 | 0.00 | 0.00 | 88 | 1012.3 |
| 20260906092057 | 76 | 0 | 0.0 | 0.0 | 0.00 | 0.00 | 0.00 | 89 | 1012.3 |
| 20260906091605 | 76 | 0 | 0.0 | 0.0 | 0.00 | 0.00 | 0.00 | 89 | 1012.3 |
| 20260906091057 | 76 | 0 | 0.0 | 0.0 | 0.00 | 0.00 | 0.00 | 90 | 1012.3 |
| 20260906090557 | 76 | 0 | 0.0 | 0.0 | 0.00 | 0.00 | 0.00 | 90 | 1012.2 |
| 20260906090104 | 76 | 0 | 0.0 | 0.0 | 0.00 | 0.00 | 0.00 | 91 | 1012.2 |
| 20260906085557 | 76 | 0 | 0.0 | 0.0 | 0.00 | 0.00 | 0.00 | 90 | 1012.1 |
| 20260906085059 | 76 | 0 | 0.0 | 0.0 | 0.00 | 0.00 | 0.00 | 91 | 1012.1 |
| 20260906084608 | 76 | 0 | 0.0 | 0.0 | 0.00 | 0.00 | 0.00 | 91 | 1012.2 |
| 20260906084058 | 76 | 0 | 0.0 | 0.0 | 0.00 | 0.00 | 0.00 | 90 | 1012.2 |
| 20260906083559 | 76 | 0 | 0.0 | 0.0 | 0.00 | 0.00 | 0.00 | 91 | 1012.2 |
| 20260906083106 | 76 | 0 | 0.0 | 0.0 | 0.00 | 0.00 | 0.00 | 91 | 1012.2 |
| 20260906082556 | 76 | 0 | 0.0 | 0.0 | 0.00 | 0.00 | 0.00 | 91 | 1012.2 |
| 20260906082057 | 76 | 0 | 0.0 | 0.0 | 0.00 | 0.00 | 0.00 | 91 | 1012.1 |
| 20260906081603 | 76 | 0 | 0.0 | 0.0 | 0.00 | 0.00 | 0.00 | 91 | 1012.2 |
| 20260906081057 | 76 | 0 | 0.0 | 0.0 | 0.00 | 0.00 | 0.00 | 91 | 1012.2 |
| 20260906080600 | 76 | 0 | 0.0 | 0.0 | 0.00 | 0.00 | 0.00 | 91 | 1012.3 |
| 20260906080107 | 76 | 0 | 0.0 | 0.0 | 0.00 | 0.00 | 0.00 | 91 | 1012.3 |
| 20260906075556 | 76 | 0 | 0.0 | 0.0 | 0.00 | 0.00 | 0.00 | 91 | 1012.3 |
| 20260906075057 | 76 | 0 | 0.0 | 0.0 | 0.00 | 0.00 | 0.00 | 91 | 1012.3 |
| 20260906074600 | 76 | 0 | 0.0 | 0.0 | 0.00 | 0.00 | 0.00 | 91 | 1012.3 |
| 20260906074058 | 76 | 0 | 0.0 | 0.0 | 0.00 | 0.00 | 0.00 | 91 | 1012.3 |
| 20260906073556 | 77 | 0 | 0.0 | 0.0 | 0.00 | 0.00 | 0.00 | 91 | 1012.3 |
| 20260906073106 | 77 | 0 | 0.0 | 0.0 | 0.00 | 0.00 | 0.00 | 90 | 1012.3 |
| 20260906072559 | 77 | 0 | 0.0 | 0.0 | 0.00 | 0.00 | 0.00 | 90 | 1012.3 |
| 20260906072056 | 77 | 0 | 0.0 | 0.0 | 0.00 | 0.00 | 0.00 | 90 | 1012.2 |
| 20260906071602 | 77 | 0 | 0.0 | 0.0 | 0.00 | 0.00 | 0.00 | 90 | 1012.1 |
| 20260906071057 | 77 | 0 | 0.0 | 0.0 | 0.00 | 0.00 | 0.00 | 90 | 1012.1 |
| 20260906070559 | 77 | 0 | 0.0 | 0.0 | 0.00 | 0.00 | 0.00 | 90 | 1012.0 |
| 20260906070105 | 77 | 0 | 0.0 | 0.0 | 0.00 | 0.00 | 0.00 | 89 | 1012.1 |
| 20260906065556 | 77 | 0 | 0.0 | 0.0 | 0.00 | 0.00 | 0.00 | 90 | 1012.1 |
| 20260906065059 | 77 | 0 | 0.0 | 0.0 | 0.00 | 0.00 | 0.00 | 89 | 1012.1 |
| 20260906064606 | 78 | 0 | 0.0 | 0.0 | 0.00 | 0.00 | 0.00 | 89 | 1012.1 |
| 20260906064057 | 78 | 0 | 0.0 | 0.0 | 0.00 | 0.00 | 0.00 | 89 | 1012.1 |
| 20260906063558 | 78 | 0 | 0.0 | 0.0 | 0.00 | 0.00 | 0.00 | 89 | 1012.1 |
| 20260906063104 | 78 | 0 | 0.0 | 0.0 | 0.00 | 0.00 | 0.00 | 89 | 1012.1 |
| 20260906062556 | 78 | 0 | 0.0 | 0.0 | 0.00 | 0.00 | 0.00 | 89 | 1012.1 |
| 20260906062056 | 78 | 0 | 0.0 | 0.0 | 0.00 | 0.00 | 0.00 | 89 | 1012.2 |
| 20260906061607 | 78 | 0 | 0.0 | 0.0 | 0.00 | 0.00 | 0.00 | 89 | 1012.2 |
| 20260906061058 | 78 | 0 | 0.0 | 0.0 | 0.00 | 0.00 | 0.00 | 89 | 1012.1 |
| 20260906060556 | 78 | 0 | 0.0 | 0.0 | 0.00 | 0.00 | 0.00 | 88 | 1012.2 |
| 20260906060106 | 78 | 0 | 0.0 | 0.0 | 0.00 | 0.00 | 0.00 | 89 | 1012.2 |
| 20260906055556 | 78 | 0 | 0.0 | 0.0 | 0.00 | 0.00 | 0.00 | 89 | 1012.3 |
| 20260906055056 | 78 | 0 | 0.0 | 0.0 | 0.00 | 0.00 | 0.00 | 89 | 1012.3 |
| 20260906054608 | 78 | 0 | 0.0 | 0.0 | 0.00 | 0.00 | 0.00 | 89 | 1012.3 |
| 20260906054056 | 78 | 0 | 0.0 | 1.7 | 0.00 | 0.00 | 0.00 | 89 | 1012.4 |
| 20260906053559 | 78 | 0 | 0.0 | 2.6 | 0.00 | 0.00 | 0.00 | 88 | 1012.4 |
| 20260906053105 | 78 | 214 | 0.0 | 2.6 | 0.00 | 0.00 | 0.00 | 89 | 1012.5 |
| 20260906052558 | 78 | 217 | 0.9 | 1.7 | 0.00 | 0.00 | 0.00 | 88 | 1012.5 |
| 20260906052057 | 78 | 0 | 0.0 | 0.0 | 0.00 | 0.00 | 0.00 | 88 | 1012.5 |
| 20260906051614 | 78 | 0 | 0.0 | 0.0 | 0.00 | 0.00 | 0.00 | 88 | 1012.5 |
| 20260906051056 | 78 | 0 | 0.0 | 0.0 | 0.00 | 0.00 | 0.00 | 88 | 1012.5 |
| 20260906050556 | 78 | 0 | 0.0 | 0.0 | 0.00 | 0.00 | 0.00 | 88 | 1012.5 |
| 20260906050105 | 78 | 0 | 0.0 | 0.9 | 0.00 | 0.00 | 0.00 | 88 | 1012.5 |
| 20260906045557 | 78 | 0 | 0.0 | 0.9 | 0.00 | 0.00 | 0.00 | 88 | 1012.5 |
| 20260906045100 | 78 | 0 | 0.0 | 0.0 | 0.00 | 0.00 | 0.00 | 88 | 1012.5 |
| 20260906044608 | 78 | 0 | 0.0 | 0.0 | 0.00 | 0.00 | 0.00 | 88 | 1012.5 |
| 20260906044056 | 79 | 0 | 0.0 | 0.0 | 0.00 | 0.00 | 0.00 | 88 | 1012.5 |
| 20260906043556 | 79 | 0 | 0.0 | 0.0 | 0.00 | 0.00 | 0.00 | 87 | 1012.7 |
| 20260906043104 | 79 | 0 | 0.0 | 0.0 | 0.00 | 0.00 | 0.00 | 87 | 1012.6 |
| 20260906042557 | 79 | 0 | 0.0 | 0.0 | 0.00 | 0.00 | 0.00 | 87 | 1012.6 |
| 20260906042056 | 79 | 0 | 0.0 | 0.0 | 0.00 | 0.00 | 0.00 | 87 | 1012.6 |
| 20260906041605 | 79 | 0 | 0.0 | 0.0 | 0.00 | 0.00 | 0.00 | 87 | 1012.6 |
| 20260906041057 | 79 | 0 | 0.0 | 0.0 | 0.00 | 0.00 | 0.00 | 86 | 1012.6 |
| 20260906040556 | 79 | 0 | 0.0 | 0.0 | 0.00 | 0.00 | 0.00 | 86 | 1012.6 |
| 20260906040139 | 80 | 0 | 0.0 | 0.0 | 0.00 | 0.00 | 0.00 | 85 | 1012.5 |
| 20260906035556 | 80 | 0 | 0.0 | 0.0 | 0.00 | 0.00 | 0.00 | 86 | 1012.6 |
| 20260906035056 | 80 | 0 | 0.0 | 0.0 | 0.00 | 0.00 | 0.00 | 85 | 1012.5 |
| 20260906034620 | 80 | 0 | 0.0 | 0.0 | 0.00 | 0.00 | 0.00 | 85 | 1012.5 |
| 20260906034057 | 80 | 0 | 0.0 | 0.0 | 0.00 | 0.00 | 0.00 | 85 | 1012.5 |
| 20260906033556 | 80 | 0 | 0.0 | 0.0 | 0.00 | 0.00 | 0.00 | 85 | 1012.6 |
| 20260906033108 | 80 | 0 | 0.0 | 0.0 | 0.00 | 0.00 | 0.00 | 84 | 1012.6 |
| 20260906032558 | 80 | 0 | 0.0 | 0.0 | 0.00 | 0.00 | 0.00 | 84 | 1012.5 |
| 20260906032056 | 80 | 0 | 0.0 | 0.0 | 0.00 | 0.00 | 0.00 | 84 | 1012.7 |
| 20260906031605 | 80 | 0 | 0.0 | 0.0 | 0.00 | 0.00 | 0.00 | 84 | 1012.7 |
| 20260906031056 | 80 | 0 | 0.0 | 0.0 | 0.00 | 0.00 | 0.00 | 83 | 1012.6 |
| 20260906030556 | 81 | 0 | 0.0 | 0.0 | 0.00 | 0.00 | 0.00 | 83 | 1012.6 |
| 20260906030106 | 81 | 0 | 0.0 | 0.0 | 0.00 | 0.00 | 0.00 | 83 | 1012.6 |
| 20260906025555 | 81 | 0 | 0.0 | 0.0 | 0.00 | 0.00 | 0.00 | 83 | 1012.5 |
| 20260906025059 | 81 | 0 | 0.0 | 0.0 | 0.00 | 0.00 | 0.00 | 82 | 1012.5 |
| 20260906024615 | 81 | 0 | 0.0 | 0.0 | 0.00 | 0.00 | 0.00 | 82 | 1012.4 |
| 20260906024056 | 81 | 0 | 0.0 | 0.0 | 0.00 | 0.00 | 0.00 | 82 | 1012.4 |
| 20260906023559 | 81 | 0 | 0.0 | 0.0 | 0.00 | 0.00 | 0.00 | 82 | 1012.4 |
| 20260906023106 | 81 | 0 | 0.0 | 0.0 | 0.00 | 0.00 | 0.00 | 81 | 1012.3 |
| 20260906022558 | 82 | 0 | 0.0 | 0.0 | 0.00 | 0.00 | 0.00 | 82 | 1012.2 |
| 20260906022056 | 82 | 0 | 0.0 | 0.0 | 0.00 | 0.00 | 0.00 | 80 | 1012.1 |
| 20260906021607 | 82 | 0 | 0.0 | 0.0 | 0.00 | 0.00 | 0.00 | 80 | 1012.1 |
| 20260906021059 | 82 | 0 | 0.0 | 0.0 | 0.00 | 0.00 | 0.00 | 80 | 1012.1 |
| 20260906020556 | 82 | 0 | 0.0 | 0.0 | 0.00 | 0.00 | 0.00 | 80 | 1012.0 |
| 20260906020106 | 83 | 0 | 0.0 | 0.0 | 0.00 | 0.00 | 0.00 | 80 | 1011.9 |
| 20260906015556 | 83 | 0 | 0.0 | 0.0 | 0.00 | 0.00 | 0.00 | 79 | 1011.9 |
| 20260906015058 | 83 | 0 | 0.0 | 0.0 | 0.00 | 0.00 | 0.00 | 78 | 1011.8 |
| 20260906014603 | 83 | 0 | 0.0 | 0.0 | 0.00 | 0.00 | 0.00 | 78 | 1011.6 |
| 20260906014056 | 84 | 0 | 0.0 | 0.0 | 0.00 | 0.00 | 0.00 | 78 | 1011.7 |
| 20260906013556 | 84 | 0 | 0.0 | 0.0 | 0.00 | 0.00 | 0.00 | 77 | 1011.7 |
| 20260906013112 | 84 | 0 | 0.0 | 0.0 | 0.00 | 0.00 | 0.00 | 77 | 1011.7 |
| 20260906012555 | 84 | 0 | 0.0 | 0.0 | 0.00 | 0.00 | 0.00 | 75 | 1011.7 |
| 20260906012056 | 85 | 0 | 0.0 | 0.0 | 0.00 | 0.00 | 0.00 | 76 | 1011.6 |
| 20260906011608 | 85 | 0 | 0.0 | 0.0 | 0.00 | 0.00 | 0.00 | 75 | 1011.7 |
| 20260906011055 | 85 | 0 | 0.0 | 0.0 | 0.00 | 0.00 | 0.00 | 75 | 1011.6 |
| 20260906010556 | 85 | 0 | 0.0 | 0.0 | 0.00 | 0.00 | 0.00 | 75 | 1011.7 |
| 20260906010106 | 86 | 0 | 0.0 | 0.0 | 0.00 | 0.00 | 0.00 | 74 | 1011.6 |
| 20260906005557 | 86 | 0 | 0.0 | 0.0 | 0.00 | 0.00 | 0.00 | 74 | 1011.5 |
| 20260906005058 | 86 | 0 | 0.0 | 0.0 | 0.00 | 0.00 | 0.00 | 73 | 1011.4 |
| 20260906004607 | 87 | 0 | 0.0 | 0.0 | 0.00 | 0.00 | 0.00 | 72 | 1011.4 |
| 20260906004056 | 87 | 0 | 0.0 | 0.0 | 0.00 | 0.00 | 0.00 | 71 | 1011.4 |
| 20260906003556 | 88 | 0 | 0.0 | 0.0 | 0.00 | 0.00 | 0.00 | 71 | 1011.4 |
| 20260906003102 | 88 | 0 | 0.0 | 0.0 | 0.00 | 0.00 | 0.00 | 70 | 1011.4 |
| 20260906002559 | 89 | 0 | 0.0 | 0.0 | 0.00 | 0.00 | 0.00 | 68 | 1011.4 |
| 20260906002056 | 89 | 0 | 0.0 | 0.0 | 0.00 | 0.00 | 0.00 | 69 | 1011.5 |
| 20260906001607 | 90 | 0 | 0.0 | 0.0 | 0.00 | 0.00 | 0.00 | 69 | 1011.5 |
| 20260906001100 | 90 | 0 | 0.0 | 0.0 | 0.00 | 0.00 | 0.00 | 66 | 1011.5 |
| 20260906000559 | 90 | 0 | 0.0 | 0.0 | 0.00 | 0.00 | 0.00 | 66 | 1011.5 |
| 20260906000108 | 91 | 0 | 0.0 | 0.0 | 0.00 | 0.00 | 0.00 | 65 | 1011.6 |
| 20260905235559 | 91 | 0 | 0.0 | 0.0 | 0.00 | 0.00 | 0.00 | 65 | 1011.6 |
| 20260905235056 | 91 | 0 | 0.0 | 0.0 | 0.00 | 0.00 | 0.00 | 65 | 1011.7 |
| 20260905234603 | 92 | 0 | 0.0 | 0.0 | 0.00 | 0.00 | 0.00 | 64 | 1011.7 |
| 20260905234056 | 92 | 0 | 0.0 | 0.0 | 0.00 | 0.00 | 0.00 | 65 | 1011.6 |
| 20260905233557 | 92 | 0 | 0.0 | 0.0 | 0.00 | 0.00 | 0.00 | 63 | 1011.6 |
| 20260905233103 | 93 | 0 | 0.0 | 0.0 | 0.00 | 0.00 | 0.00 | 62 | 1011.6 |
| 20260905232556 | 93 | 0 | 0.0 | 0.0 | 0.00 | 0.00 | 0.00 | 62 | 1011.8 |
| 20260905232058 | 93 | 0 | 0.0 | 0.0 | 0.00 | 0.00 | 0.00 | 62 | 1011.6 |
| 20260905231608 | 93 | 0 | 0.0 | 0.0 | 0.00 | 0.00 | 0.00 | 61 | 1011.5 |
| 20260905231056 | 94 | 0 | 0.0 | 0.0 | 0.00 | 0.00 | 0.00 | 61 | 1011.6 |
| 20260905230556 | 94 | 0 | 0.0 | 0.0 | 0.00 | 0.00 | 0.00 | 60 | 1011.6 |
| 20260905230109 | 94 | 0 | 0.0 | 0.9 | 0.00 | 0.00 | 0.00 | 60 | 1011.6 |
| 20260905225555 | 94 | 0 | 0.0 | 0.9 | 0.00 | 0.00 | 0.00 | 59 | 1011.6 |
| 20260905225056 | 94 | 0 | 0.0 | 0.9 | 0.00 | 0.00 | 0.00 | 58 | 1011.6 |
| 20260905224617 | 94 | 0 | 0.0 | 0.9 | 0.00 | 0.00 | 0.00 | 59 | 1011.6 |
| 20260905224056 | 94 | 0 | 0.0 | 0.9 | 0.00 | 0.00 | 0.00 | 58 | 1011.5 |
| 20260905223555 | 95 | 0 | 0.0 | 1.7 | 0.00 | 0.00 | 0.00 | 57 | 1011.6 |
| 20260905223118 | 95 | 0 | 0.0 | 1.7 | 0.00 | 0.00 | 0.00 | 58 | 1011.7 |
| 20260905222556 | 95 | 0 | 0.0 | 1.7 | 0.00 | 0.00 | 0.00 | 56 | 1011.7 |
| 20260905222056 | 95 | 321 | 0.0 | 3.5 | 0.00 | 0.00 | 0.00 | 56 | 1011.7 |
| 20260905221606 | 96 | 322 | 0.9 | 3.5 | 0.00 | 0.00 | 0.00 | 55 | 1011.7 |
| 20260905221056 | 96 | 271 | 0.0 | 1.7 | 0.00 | 0.00 | 0.00 | 56 | 1011.7 |
| 20260905220556 | 96 | 244 | 0.0 | 1.7 | 0.00 | 0.00 | 0.00 | 55 | 1011.6 |
| 20260905220103 | 96 | 0 | 0.0 | 1.7 | 0.00 | 0.00 | 0.00 | 54 | 1011.7 |
| 20260905215556 | 96 | 0 | 0.0 | 4.3 | 0.00 | 0.00 | 0.00 | 55 | 1011.6 |
| 20260905215100 | 96 | 0 | 0.0 | 4.3 | 0.00 | 0.00 | 0.00 | 54 | 1011.7 |
| 20260905214604 | 97 | 214 | 0.0 | 2.6 | 0.00 | 0.00 | 0.00 | 53 | 1011.6 |
| 20260905214056 | 96 | 236 | 0.0 | 2.6 | 0.00 | 0.00 | 0.00 | 53 | 1011.7 |
| 20260905213556 | 96 | 211 | 0.0 | 2.6 | 0.00 | 0.00 | 0.00 | 53 | 1011.8 |
| 20260905213107 | 97 | 0 | 0.9 | 3.5 | 0.00 | 0.00 | 0.00 | 51 | 1011.8 |
| 20260905212557 | 97 | 0 | 0.0 | 3.5 | 0.00 | 0.00 | 0.00 | 54 | 1011.8 |
| 20260905212057 | 97 | 337 | 0.9 | 3.5 | 0.00 | 0.00 | 0.00 | 53 | 1011.8 |
| 20260905211604 | 98 | 347 | 0.0 | 2.6 | 0.00 | 0.00 | 0.00 | 53 | 1011.9 |
| 20260905211056 | 98 | 0 | 0.0 | 3.5 | 0.00 | 0.00 | 0.00 | 53 | 1011.9 |
| 20260905210556 | 98 | 16 | 0.9 | 3.5 | 0.00 | 0.00 | 0.00 | 53 | 1012.0 |
| 20260905210107 | 98 | 205 | 1.7 | 3.5 | 0.00 | 0.00 | 0.00 | 53 | 1012.0 |
| 20260905205558 | 98 | 296 | 0.9 | 3.5 | 0.00 | 0.00 | 0.00 | 53 | 1012.1 |
| 20260905205056 | 99 | 294 | 0.0 | 2.6 | 0.00 | 0.00 | 0.00 | 52 | 1012.1 |
| 20260905204606 | 99 | 0 | 0.9 | 2.6 | 0.00 | 0.00 | 0.00 | 50 | 1012.2 |
| 20260905204056 | 100 | 0 | 0.0 | 2.6 | 0.00 | 0.00 | 0.00 | 52 | 1012.3 |
| 20260905203557 | 100 | 0 | 0.0 | 2.6 | 0.00 | 0.00 | 0.00 | 50 | 1012.3 |
| 20260905203109 | 100 | 99 | 0.0 | 1.7 | 0.00 | 0.00 | 0.00 | 50 | 1012.3 |
| 20260905202555 | 99 | 0 | 0.0 | 3.5 | 0.00 | 0.00 | 0.00 | 49 | 1012.3 |
| 20260905202056 | 99 | 0 | 0.0 | 3.5 | 0.00 | 0.00 | 0.00 | 50 | 1012.2 |
| 20260905201610 | 99 | 0 | 1.7 | 3.5 | 0.00 | 0.00 | 0.00 | 51 | 1012.4 |
| 20260905201056 | 99 | 0 | 0.9 | 3.5 | 0.00 | 0.00 | 0.00 | 50 | 1012.4 |
| 20260905200556 | 98 | 0 | 0.0 | 3.5 | 0.00 | 0.00 | 0.00 | 54 | 1012.5 |
| 20260905200109 | 97 | 0 | 0.9 | 3.5 | 0.00 | 0.00 | 0.00 | 53 | 1012.7 |
| 20260905195558 | 97 | 346 | 0.9 | 4.3 | 0.00 | 0.00 | 0.00 | 51 | 1012.8 |
| 20260905195055 | 97 | 5 | 0.0 | 4.3 | 0.00 | 0.00 | 0.00 | 52 | 1013.0 |
| 20260905194608 | 97 | 9 | 0.9 | 8.7 | 0.00 | 0.00 | 0.00 | 52 | 1013.0 |
| 20260905194056 | 97 | 334 | 1.7 | 8.7 | 0.00 | 0.00 | 0.00 | 51 | 1013.0 |
| 20260905193555 | 97 | 15 | 0.0 | 7.0 | 0.00 | 0.00 | 0.00 | 52 | 1013.1 |
| 20260905193104 | 98 | 229 | 1.7 | 7.0 | 0.00 | 0.00 | 0.00 | 50 | 1013.2 |
| 20260905192555 | 99 | 327 | 0.9 | 3.5 | 0.00 | 0.00 | 0.00 | 51 | 1013.3 |
| 20260905192055 | 99 | 0 | 0.0 | 3.5 | 0.00 | 0.00 | 0.00 | 52 | 1013.4 |
| 20260905191609 | 98 | 0 | 0.0 | 3.5 | 0.00 | 0.00 | 0.00 | 53 | 1013.5 |
| 20260905191056 | 98 | 86 | 0.0 | 7.8 | 0.00 | 0.00 | 0.00 | 53 | 1013.6 |
| 20260905190555 | 97 | 0 | 0.0 | 7.8 | 0.00 | 0.00 | 0.00 | 54 | 1013.6 |
| 20260905190105 | 96 | 0 | 2.6 | 7.8 | 0.00 | 0.00 | 0.00 | 53 | 1013.7 |
| 20260905185555 | 96 | 345 | 0.9 | 7.8 | 0.00 | 0.00 | 0.00 | 54 | 1013.8 |
| 20260905185055 | 96 | 331 | 0.9 | 7.8 | 0.00 | 0.00 | 0.00 | 54 | 1013.7 |
| 20260905184605 | 96 | 286 | 0.0 | 5.2 | 0.00 | 0.00 | 0.00 | 53 | 1013.7 |
| 20260905184055 | 96 | 0 | 1.7 | 5.2 | 0.00 | 0.00 | 0.00 | 54 | 1013.7 |
| 20260905183556 | 96 | 317 | 0.9 | 5.2 | 0.00 | 0.00 | 0.00 | 53 | 1013.9 |
| 20260905183109 | 97 | 0 | 1.7 | 5.2 | 0.00 | 0.00 | 0.00 | 54 | 1013.8 |
| 20260905182556 | 97 | 338 | 0.0 | 4.3 | 0.00 | 0.00 | 0.00 | 51 | 1013.8 |
| 20260905182056 | 98 | 63 | 0.0 | 4.3 | 0.00 | 0.00 | 0.00 | 53 | 1013.9 |
| 20260905181604 | 97 | 142 | 1.7 | 4.3 | 0.00 | 0.00 | 0.00 | 52 | 1013.9 |
| 20260905181056 | 96 | 213 | 0.0 | 3.5 | 0.00 | 0.00 | 0.00 | 55 | 1014.0 |
| 20260905180559 | 96 | 61 | 0.9 | 5.2 | 0.00 | 0.00 | 0.00 | 54 | 1014.0 |
| 20260905180106 | 96 | 0 | 0.9 | 5.2 | 0.00 | 0.00 | 0.00 | 55 | 1014.1 |
| 20260905175556 | 96 | 297 | 0.0 | 2.6 | 0.00 | 0.00 | 0.00 | 56 | 1014.1 |
| 20260905175057 | 96 | 206 | 0.0 | 2.6 | 0.00 | 0.00 | 0.00 | 55 | 1014.0 |
| 20260905174603 | 96 | 27 | 0.0 | 2.6 | 0.00 | 0.00 | 0.00 | 55 | 1014.1 |
| 20260905174055 | 96 | 300 | 0.9 | 2.6 | 0.00 | 0.00 | 0.00 | 56 | 1014.1 |
| 20260905173556 | 96 | 306 | 0.0 | 2.6 | 0.00 | 0.00 | 0.00 | 56 | 1014.1 |
| 20260905173131 | 96 | 11 | 0.0 | 2.6 | 0.00 | 0.00 | 0.00 | 56 | 1014.1 |
| 20260905172555 | 96 | 13 | 0.9 | 2.6 | 0.00 | 0.00 | 0.00 | 55 | 1014.3 |
| 20260905172055 | 96 | 270 | 0.0 | 3.5 | 0.00 | 0.00 | 0.00 | 57 | 1014.3 |
| 20260905171604 | 95 | 0 | 0.0 | 3.5 | 0.00 | 0.00 | 0.00 | 60 | 1014.4 |
| 20260905171056 | 95 | 34 | 1.7 | 3.5 | 0.00 | 0.00 | 0.00 | 55 | 1014.6 |
| 20260905170556 | 96 | 86 | 0.9 | 3.5 | 0.00 | 0.00 | 0.00 | 55 | 1014.5 |
| 20260905170113 | 95 | 0 | 0.9 | 2.6 | 0.00 | 0.00 | 0.00 | 58 | 1014.5 |
| 20260905165555 | 94 | 101 | 0.0 | 1.7 | 0.00 | 0.00 | 0.00 | 60 | 1014.5 |
| 20260905165056 | 93 | 0 | 0.0 | 1.7 | 0.00 | 0.00 | 0.00 | 59 | 1014.6 |
| 20260905164610 | 93 | 38 | 0.0 | 1.7 | 0.00 | 0.00 | 0.00 | 62 | 1014.6 |
| 20260905164056 | 93 | 83 | 0.0 | 4.3 | 0.00 | 0.00 | 0.00 | 63 | 1014.7 |
| 20260905163555 | 93 | 0 | 1.7 | 4.3 | 0.00 | 0.00 | 0.00 | 62 | 1014.9 |
| 20260905163117 | 92 | 24 | 0.0 | 2.6 | 0.00 | 0.00 | 0.00 | 61 | 1014.9 |
| 20260905162556 | 92 | 0 | 0.0 | 2.6 | 0.00 | 0.00 | 0.00 | 65 | 1015.0 |
| 20260905162056 | 92 | 0 | 0.0 | 2.6 | 0.00 | 0.00 | 0.00 | 63 | 1014.9 |
| 20260905161615 | 91 | 38 | 0.0 | 2.6 | 0.00 | 0.00 | 0.00 | 64 | 1015.0 |
| 20260905161056 | 90 | 0 | 0.9 | 2.6 | 0.00 | 0.00 | 0.00 | 66 | 1015.1 |
| 20260905160556 | 90 | 44 | 0.9 | 2.6 | 0.00 | 0.00 | 0.00 | 66 | 1015.1 |
| 20260905160100 | 90 | 337 | 0.0 | 2.6 | 0.00 | 0.00 | 0.00 | 66 | 1015.2 |
| 20260905155556 | 89 | 0 | 0.0 | 4.3 | 0.00 | 0.00 | 0.00 | 67 | 1015.2 |
| 20260905155056 | 89 | 5 | 0.9 | 4.3 | 0.00 | 0.00 | 0.00 | 70 | 1015.1 |
| 20260905154616 | 88 | 5 | 0.0 | 2.6 | 0.00 | 0.00 | 0.00 | 68 | 1015.1 |
| 20260905154100 | 88 | 5 | 0.9 | 3.5 | 0.00 | 0.00 | 0.00 | 70 | 1015.2 |
| 20260905153555 | 88 | 0 | 0.9 | 3.5 | 0.00 | 0.00 | 0.00 | 73 | 1015.2 |
| 20260905153102 | 87 | 0 | 0.9 | 3.5 | 0.00 | 0.00 | 0.00 | 74 | 1015.3 |
| 20260905152558 | 87 | 308 | 0.0 | 1.7 | 0.00 | 0.00 | 0.00 | 75 | 1015.2 |
| 20260905152056 | 86 | 0 | 0.0 | 1.7 | 0.00 | 0.00 | 0.00 | 75 | 1015.2 |
| 20260905151603 | 86 | 0 | 0.0 | 1.7 | 0.00 | 0.00 | 0.00 | 77 | 1015.2 |
| 20260905151055 | 85 | 330 | 0.0 | 2.6 | 0.00 | 0.00 | 0.00 | 75 | 1015.3 |
| 20260905150554 | 85 | 0 | 0.0 | 2.6 | 0.00 | 0.00 | 0.00 | 76 | 1015.3 |
| 20260905150109 | 85 | 0 | 0.9 | 2.6 | 0.00 | 0.00 | 0.00 | 78 | 1015.3 |
| 20260905145556 | 84 | 339 | 0.0 | 2.6 | 0.00 | 0.00 | 0.00 | 79 | 1015.3 |
| 20260905145055 | 84 | 326 | 0.9 | 2.6 | 0.00 | 0.00 | 0.00 | 78 | 1015.3 |
| 20260905144605 | 83 | 305 | 0.0 | 1.7 | 0.00 | 0.00 | 0.00 | 81 | 1015.3 |
| 20260905144056 | 83 | 0 | 0.0 | 0.9 | 0.00 | 0.00 | 0.00 | 83 | 1015.3 |
| 20260905143556 | 83 | 0 | 0.0 | 1.7 | 0.00 | 0.00 | 0.00 | 82 | 1015.3 |
| 20260905143110 | 82 | 0 | 0.0 | 1.7 | 0.00 | 0.00 | 0.00 | 84 | 1015.4 |
| 20260905142557 | 82 | 230 | 0.0 | 2.6 | 0.00 | 0.00 | 0.00 | 84 | 1015.3 |
| 20260905142055 | 81 | 0 | 0.0 | 2.6 | 0.00 | 0.00 | 0.00 | 85 | 1015.4 |
| 20260905141606 | 81 | 0 | 0.0 | 0.9 | 0.00 | 0.00 | 0.00 | 85 | 1015.3 |
| 20260905141054 | 80 | 0 | 0.0 | 0.9 | 0.00 | 0.00 | 0.00 | 86 | 1015.4 |
| 20260905140555 | 80 | 0 | 0.0 | 0.9 | 0.00 | 0.00 | 0.00 | 87 | 1015.3 |
| 20260905140105 | 80 | 0 | 0.0 | 0.0 | 0.00 | 0.00 | 0.00 | 87 | 1015.3 |
| 20260905135554 | 79 | 0 | 0.0 | 1.7 | 0.00 | 0.00 | 0.00 | 88 | 1015.2 |
| 20260905135057 | 78 | 0 | 0.0 | 1.7 | 0.00 | 0.00 | 0.00 | 88 | 1015.3 |
| 20260905134605 | 78 | 0 | 0.0 | 0.9 | 0.00 | 0.00 | 0.00 | 89 | 1015.2 |
| 20260905134055 | 77 | 215 | 0.0 | 1.7 | 0.00 | 0.00 | 0.00 | 90 | 1015.3 |
| 20260905133556 | 77 | 0 | 0.0 | 1.7 | 0.00 | 0.00 | 0.00 | 90 | 1015.4 |
| 20260905133106 | 77 | 281 | 0.0 | 0.0 | 0.00 | 0.00 | 0.00 | 93 | 1015.3 |
| 20260905132555 | 76 | 0 | 0.0 | 0.0 | 0.00 | 0.00 | 0.00 | 94 | 1015.4 |
| 20260905132057 | 76 | 0 | 0.0 | 0.0 | 0.00 | 0.00 | 0.00 | 94 | 1015.4 |
| 20260905131604 | 76 | 0 | 0.0 | 0.0 | 0.00 | 0.00 | 0.00 | 95 | 1015.5 |
| 20260905131058 | 75 | 0 | 0.0 | 0.0 | 0.00 | 0.00 | 0.00 | 96 | 1015.5 |
| 20260905130556 | 75 | 0 | 0.0 | 0.0 | 0.00 | 0.00 | 0.00 | 96 | 1015.4 |
| 20260905130104 | 74 | 0 | 0.0 | 0.0 | 0.00 | 0.00 | 0.00 | 96 | 1015.4 |
| 20260905125555 | 74 | 0 | 0.0 | 0.0 | 0.00 | 0.00 | 0.00 | 96 | 1015.4 |
| 20260905125056 | 74 | 0 | 0.0 | 0.0 | 0.00 | 0.00 | 0.00 | 96 | 1015.4 |
| 20260905124605 | 74 | 0 | 0.0 | 0.9 | 0.00 | 0.00 | 0.00 | 96 | 1015.4 |
| 20260905124055 | 73 | 0 | 0.0 | 0.9 | 0.00 | 0.00 | 0.00 | 96 | 1015.4 |
| 20260905123555 | 73 | 0 | 0.0 | 0.9 | 0.00 | 0.00 | 0.00 | 96 | 1015.4 |
| 20260905123110 | 73 | 0 | 0.0 | 0.0 | 0.00 | 0.00 | 0.00 | 96 | 1015.4 |
| 20260905122556 | 72 | 0 | 0.0 | 0.0 | 0.00 | 0.00 | 0.00 | 95 | 1015.3 |
| 20260905122057 | 72 | 0 | 0.0 | 0.0 | 0.00 | 0.00 | 0.00 | 95 | 1015.3 |
| 20260905121606 | 72 | 0 | 0.0 | 0.0 | 0.00 | 0.00 | 0.00 | 95 | 1015.3 |
| 20260905121056 | 72 | 0 | 0.0 | 0.0 | 0.00 | 0.00 | 0.00 | 95 | 1015.3 |
| 20260905120556 | 72 | 0 | 0.0 | 0.0 | 0.00 | 0.00 | 0.00 | 95 | 1015.3 |
| 20260905120106 | 72 | 0 | 0.0 | 0.0 | 0.00 | 0.00 | 0.00 | 95 | 1015.3 |
| 20260905115555 | 72 | 0 | 0.0 | 0.0 | 0.00 | 0.00 | 0.00 | 95 | 1015.3 |
| 20260905115056 | 72 | 0 | 0.0 | 0.0 | 0.00 | 0.00 | 0.00 | 95 | 1015.3 |